[[{"header":{"parameterUnit":"m.s-1","parameterCategory":1,"la1":30.2992,"la2":30.254,"lo1":-89.0895,"lo2":-89.0443,"dy":0.0025,"dx":0.0025,"nx":19,"ny":19,"refTime":"2026-04-11T03:00:00:Z","depth":0,"parameterNumber":2,"parameterNumberName":"U-component_of_WINDS"},"data":[0,0,0,-0.7454,-0.7455,-0.7482,-0.7482,-0.7521,-0.7521,0,0,0,0,0,0,0,0,0,0,0,-0.7448,-0.7448,-0.7454,-0.7455,-0.7482,-0.7482,-0.7521,-0.7521,0,0,0,0,0,0,0,0,0,0,0,-0.7447,-0.7448,-0.7448,-0.7455,-0.7482,-0.7482,-0.7521,-0.7499,0,0,0,0,0,0,0,0,0,0,-0.7473,-0.7467,-0.7448,-0.7448,-0.7455,-0.7482,-0.7482,-0.7498,-0.7501,-0.7511,0,-0.7518,0,-0.752,-0.7524,-0.7524,0,0,0,-0.7454,-0.7465,-0.7471,-0.7448,-0.7455,-0.7482,-0.7469,-0.75,-0.7502,-0.7514,-0.7519,-0.752,-0.7521,-0.7525,-0.7525,-0.7581,-0.7581,0,0,-0.7453,-0.7453,-0.7469,-0.7473,-0.7467,-0.7469,-0.747,-0.7501,-0.7507,-0.7519,-0.7521,-0.7522,-0.7525,-0.7525,-0.758,-0.7581,0,0,0,-0.7449,-0.7452,-0.7458,-0.7471,-0.7476,-0.7469,-0.7471,-0.7506,-0.7507,-0.7521,-0.7522,-0.7525,-0.7526,-0.758,-0.758,-0.7595,0,0,0,-0.7448,-0.745,-0.7457,-0.7458,-0.7475,-0.7491,-0.7475,-0.7505,-0.7509,-0.7522,-0.7525,-0.7526,-0.758,-0.758,-0.7594,-0.7602,0,0,0,-0.7445,-0.745,-0.7454,-0.7458,-0.7469,-0.749,-0.7493,-0.7506,-0.7509,-0.7524,-0.7526,-0.7579,-0.758,-0.7593,-0.7601,-0.7618,0,0,0,-0.7443,-0.7467,-0.7454,-0.7481,-0.7469,-0.7498,-0.7493,-0.7516,-0.753,-0.7525,-0.758,-0.758,-0.7593,-0.76,-0.7617,-0.7633,-0.7639,0,0,-0.7473,-0.747,-0.7486,-0.7476,-0.7508,-0.7494,-0.7529,-0.7543,-0.7544,-0.7569,-0.757,-0.7594,-0.7601,-0.7618,-0.7674,-0.7679,0,0,0,-0.7496,-0.7508,-0.7516,-0.753,-0.754,-0.755,-0.7558,-0.7563,-0.7584,-0.7556,-0.7605,-0.7609,-0.7619,-0.7626,-0.7631,-0.764,-0.7584,-0.7584,-0.7584,-0.754,-0.754,-0.7567,-0.7571,-0.7584,-0.7592,-0.7604,-0.7613,-0.7609,-0.7621,-0.7628,-0.7662,-0.7671,-0.7674,-0.7684,-0.7636,-0.7636,-0.7636,-0.7636,-0.7586,-0.7602,-0.7597,-0.7621,-0.7621,-0.7642,-0.7652,-0.7649,-0.7669,-0.7656,-0.7665,-0.7651,-0.768,-0.7688,-0.7637,-0.7637,-0.7637,-0.7637,-0.7637,-0.7615,-0.7623,-0.7628,-0.7649,-0.7665,-0.7668,-0.7688,-0.7688,-0.7688,-0.7697,-0.7706,-0.7706,-0.7706,-0.7701,-0.7701,-0.7701,-0.7701,-0.7702,-0.7702,-0.7644,-0.7649,-0.7665,-0.7679,-0.7688,-0.77,-0.771,-0.7719,-0.7731,-0.7729,-0.7729,-0.7726,-0.7682,-0.7671,-0.7703,-0.7703,-0.7703,-0.7703,-0.7703,-0.7691,-0.768,-0.7705,-0.7714,-0.7731,-0.7748,-0.7747,-0.7767,-0.7775,-0.7786,-0.778,-0.7748,-0.7745,-0.7742,-0.7733,-0.7779,-0.7779,-0.7779,-0.7779,-0.7717,-0.7715,-0.7741,-0.7756,-0.7771,-0.7773,-0.7803,-0.7811,-0.7818,-0.7824,-0.7817,-0.7806,-0.7802,-0.7802,-0.7797,-0.7789,-0.7848,-0.7848,-0.7849,-0.7746,-0.7746,-0.7771,-0.7776,-0.7789,-0.7801,-0.783,-0.7849,-0.7855,-0.7851,-0.7829,-0.7826,-0.7807,-0.7801,-0.7797,-0.7789,-0.7775,0,0]},{"header":{"parameterUnit":"m.s-1","parameterCategory":1,"la1":30.2992,"la2":30.254,"lo1":-89.0895,"lo2":-89.0443,"dy":0.0025,"dx":0.0025,"nx":19,"ny":19,"refTime":"2026-04-11T03:00:00:Z","depth":0,"parameterNumber":3,"parameterNumberName":"V-component_of_WINDS"},"data":[0,0,0,0.408,0.4078,0.3989,0.3989,0.388,0.3879,0,0,0,0,0,0,0,0,0,0,0,0.4112,0.4112,0.408,0.4078,0.3989,0.3989,0.388,0.3879,0,0,0,0,0,0,0,0,0,0,0,0.4112,0.4112,0.4111,0.4078,0.3989,0.3989,0.3881,0.3945,0,0,0,0,0,0,0,0,0,0,0.403,0.4066,0.4112,0.4111,0.4077,0.3989,0.3989,0.3948,0.3941,0.3924,0,0.3912,0,0.3894,0.3873,0.3872,0,0,0,0.4073,0.4072,0.4044,0.4111,0.4076,0.399,0.4028,0.3944,0.3936,0.3914,0.3911,0.3906,0.3893,0.3872,0.3871,0.3796,0.3796,0,0,0.4078,0.4098,0.4049,0.4039,0.4056,0.4031,0.4025,0.3939,0.3935,0.391,0.3904,0.3891,0.3871,0.3871,0.3796,0.3796,0,0,0,0.4095,0.4102,0.4075,0.4043,0.4027,0.4028,0.4022,0.3939,0.3929,0.3902,0.389,0.3871,0.387,0.3796,0.3796,0.3813,0,0,0,0.4098,0.4112,0.4078,0.4089,0.4029,0.3983,0.4024,0.3935,0.3924,0.389,0.3871,0.3869,0.3796,0.3796,0.3812,0.3816,0,0,0,0.4116,0.4114,0.4104,0.4091,0.4054,0.3984,0.3968,0.3932,0.3917,0.3872,0.3868,0.3796,0.3796,0.3812,0.3816,0.3803,0,0,0,0.414,0.4118,0.4105,0.4075,0.4055,0.3996,0.3968,0.3922,0.3886,0.387,0.3796,0.3796,0.3812,0.3816,0.3803,0.3796,0.3795,0,0,0.4124,0.4117,0.4098,0.4083,0.4033,0.4008,0.3958,0.3903,0.3878,0.3824,0.3822,0.3812,0.3816,0.3803,0.3785,0.3785,0,0,0,0.41,0.4086,0.4068,0.4037,0.3997,0.3962,0.3914,0.3894,0.3847,0.3856,0.3804,0.3805,0.3796,0.3792,0.3792,0.3783,0.3795,0.3795,0.3795,0.4106,0.4078,0.4044,0.4006,0.3975,0.3927,0.3898,0.3862,0.384,0.3829,0.3812,0.3805,0.3801,0.3801,0.3792,0.3807,0.3807,0.3807,0.3807,0.4079,0.4056,0.4031,0.3989,0.3959,0.3922,0.3874,0.386,0.382,0.3815,0.3806,0.3802,0.3801,0.3792,0.3808,0.3808,0.3808,0.3807,0.3807,0.408,0.4064,0.4042,0.3994,0.396,0.3921,0.3885,0.3858,0.3831,0.3822,0.3802,0.3802,0.3797,0.3815,0.3815,0.3815,0.3815,0.3815,0.3815,0.4089,0.4064,0.4039,0.3996,0.3973,0.3938,0.389,0.3865,0.383,0.3812,0.3812,0.3791,0.3807,0.3812,0.3814,0.3814,0.3814,0.3815,0.3815,0.4072,0.4072,0.4033,0.401,0.3958,0.3925,0.3892,0.3844,0.3819,0.3802,0.3784,0.38,0.379,0.379,0.3793,0.3791,0.3791,0.3791,0.3791,0.4072,0.4066,0.402,0.3985,0.3947,0.3914,0.3869,0.3831,0.379,0.3773,0.3769,0.3772,0.3773,0.3762,0.3762,0.3765,0.3755,0.3755,0.3755,0.406,0.4049,0.4017,0.3981,0.3938,0.3901,0.3858,0.3816,0.377,0.3753,0.3759,0.376,0.3763,0.3766,0.3749,0.375,0.3754,0,0]}]]